Tracking 30402 objects as of 12-May-2025
HD Live streaming from Space Station
objects crossing your sky now

THOR ABLESTAR DEB

Track THOR ABLESTAR DEB now!
10-day predictions


NORAD ID: 559
Int'l Code: 1961-015GR
Perigee: 652.4 km
Apogee: 710.0 km
Inclination: 66.6 °
Period: 98.2 minutes
Semi major axis: 7052 km
RCS: 0.0375 m2 (small)
Launch date: June 29, 1961
Source: United States (US)
Launch site: AIR FORCE EASTERN TEST RANGE (AFETR)

Note: This is SATELLITE DEBRIS
Your satellite tracking list
Your tracking list is empty




NASA's NSSDC Master Catalog

Two Line Element Set (TLE):
1 00559U 61015GR  25131.61001638  .00008828  00000-0  16073-2 0  9994
2 00559  66.6013 335.7364 0040859  95.0889 265.4892 14.65937553290767
Source of the keplerian elements: AFSPC